Overview Statistics Trail Chart Weather Telemetry Raw packets
 

This is the latest recevied weather packets stored in our database for station/object KF0WJA. If no packets are shown the sender has not sent any weather packets the latest 10 day(s).

<< 44 45 46 47 48 49 50 >>
Time Temp. Humidity Pressure Rain* Wind** Luminosity Snow
1788364652 33.89° C 49% 1018.7 hPa 0 mm - 553 W/m² -
1788364331 33.33° C 49% 1019 hPa 0 mm - 552 W/m² -
1788364026 33.33° C 50% 1018.6 hPa 0 mm - 528 W/m² -
1788363721 32.78° C 50% 1018.5 hPa 0 mm - 520 W/m² -
1788363420 32.78° C 50% 1018.7 hPa 0 mm - 516 W/m² -
1788363121 32.78° C 51% 1018.6 hPa 0 mm - 501 W/m² -
1788362817 32.78° C 52% 1018.4 hPa 0 mm - 469 W/m² -
1788362512 32.78° C 51% 1018.6 hPa 0 mm - 445 W/m² -
1788362207 32.22° C 51% 1018.5 hPa 0 mm - 421 W/m² -
1788361902 31.67° C 52% 1018.6 hPa 0 mm - 396 W/m² -
1788361597 32.22° C 53% 1018.4 hPa 0 mm - 361 W/m² -
1788361293 31.67° C 53% 1018.5 hPa 0 mm - 339 W/m² -
1788360992 31.67° C 53% 1018.5 hPa 0 mm - 325 W/m² -
1788360692 31.67° C 54% 1018.4 hPa 0 mm - 317 W/m² -
1788360389 31.11° C 55% 1018.5 hPa 0 mm - 317 W/m² -
1788360084 31.11° C 54% 1018.6 hPa 0 mm - 295 W/m² -
1788359779 31.11° C 55% 1018.4 hPa 0 mm - 284 W/m² -
1788359475 30.56° C 55% 1018.6 hPa 0 mm - 268 W/m² -
1788359170 30.56° C 56% 1018.5 hPa 0 mm - 264 W/m² -
1788358866 30° C 57% 1018.7 hPa 0 mm - 239 W/m² -
1788358565 30° C 58% 1019 hPa 0 mm - 226 W/m² -
1788358261 30° C 58% 1018.6 hPa 0 mm - 210 W/m² -
1788357955 29.44° C 60% 1018.5 hPa 0 mm - 186 W/m² -
1788357651 28.89° C 60% 1018.5 hPa 0 mm - 180 W/m² -
1788357350 28.89° C 61% 1018.7 hPa 0 mm - 156 W/m² -

* Rain latest hour (hover to see other rain measurements)
** Current wind speed in m/s (hover to see current wind gust speed)